Weather History for Skagway, AK

Change the Weather History Date:

Saturday, February 16, 2013

  Actual Average Record
Temperature  
Mean Temperature 38 °F -  
Max Temperature 39 °F 34 °F 47 °F (1993)
Min Temperature 37 °F 26 °F 4 °F (1990)
Degree Days  
Heating Degree Days 27    
Moisture  
Dew Point 30 °F    
Average Humidity 73    
Maximum Humidity 86    
Minimum Humidity 60    
Precipitation  
Precipitation 0.01 in - - ()
Sea Level Pressure  
Sea Level Pressure 29.98 in    
Wind  
Wind Speed 19 mph (SSW)    
Max Wind Speed 31 mph    
Max Gust Speed 37 mph    
Visibility 10 miles    
Events Rain    
Averages and records for this station are not official NWS values.
T = Trace of Precipitation, MM = Missing Value Source: NWS Daily Summary

Daily Weather History Graph

Daily Weather History Graph

Search for Another Location

Airport:

Trip Planner

Search our weather history database for the weather conditions in past years. The results will help you decide how hot, cold, wet, or windy it might be!

Date:

Astronomy

Feb. 16, 2013 Rise Set
Actual Time 7:33 AM AKST 4:58 PM AKST
Civil Twilight 6:50 AM AKST 5:41 PM AKST
Nautical Twilight 6:02 AM AKST 6:28 PM AKST
Astronomical Twilight 5:15 AM AKST 7:16 PM AKST
Moon 9:03 AM AKST (2/16) 12:49 AM AKST (2/16)
Length of Visible Light 10h 50m
Length of Day
9h 24m
Waxing Crescent, 41% of the Moon is Illuminated
Feb 16
Waxing Crescent
Feb 17
First Quarter
Feb 25
Full
Mar 4
Last Quarter
Mar 11
New

Hourly Weather History & Observations

Time (AKST) Temp. Windchill Dew Point Humidity Pressure Visibility Wind Dir Wind Speed Gust Speed Precip Events Conditions
12:53 AM 39.0 °F 30.6 °F 35.1 °F 86% 29.85 in 10.0 mi SSW 15.0 mph - 0.00 in Rain Light Rain
1:53 AM 39.0 °F 29.9 °F 34.0 °F 82% 29.85 in 10.0 mi SSW 17.3 mph - 0.01 in Rain Light Rain
3:53 AM 39.0 °F 28.3 °F 33.1 °F 79% 29.88 in 10.0 mi SSW 24.2 mph 31.1 mph 0.00 in   Overcast
4:53 AM 39.0 °F 29.9 °F 33.1 °F 79% 29.90 in 10.0 mi South 17.3 mph 25.3 mph N/A   Mostly Cloudy
5:53 AM 39.0 °F 31.4 °F 33.1 °F 79% 29.91 in 10.0 mi SSW 12.7 mph - N/A   Overcast
6:53 AM 37.9 °F 31.5 °F 32.0 °F 79% 29.92 in 10.0 mi South 9.2 mph - N/A   Mostly Cloudy
7:53 AM 37.9 °F 27.9 °F 33.1 °F 83% 29.93 in 10.0 mi SSW 19.6 mph - N/A   Overcast
8:53 AM 37.9 °F 28.9 °F 33.1 °F 83% 29.95 in 10.0 mi SSW 16.1 mph - N/A   Scattered Clouds
9:53 AM 37.9 °F 27.9 °F 33.1 °F 83% 29.96 in 10.0 mi SSW 19.6 mph 27.6 mph N/A   Mostly Cloudy
10:53 AM 39.0 °F 28.0 °F 33.1 °F 79% 29.96 in 10.0 mi SSW 25.3 mph - N/A   Overcast
11:53 AM 39.0 °F 29.0 °F 33.1 °F 79% 29.98 in 10.0 mi SSW 20.7 mph 29.9 mph N/A   Overcast
12:53 PM 39.0 °F 28.0 °F 33.1 °F 79% 29.98 in 10.0 mi SSW 25.3 mph - N/A   Overcast
1:53 PM 39.9 °F 29.5 °F 32.0 °F 73% 29.99 in 10.0 mi SSW 24.2 mph 33.4 mph N/A   Overcast
2:53 PM 39.0 °F 28.8 °F 30.9 °F 73% 30.00 in 10.0 mi SSW 21.9 mph 33.4 mph N/A   Overcast
3:53 PM 39.0 °F 27.0 °F 27.0 °F 62% 30.00 in 10.0 mi SSW 31.1 mph 36.8 mph N/A   Overcast
4:53 PM 37.9 °F 28.9 °F 26.1 °F 62% 30.03 in 10.0 mi SSW 16.1 mph 28.8 mph N/A   Overcast
5:53 PM 37.9 °F 29.2 °F 25.0 °F 60% 30.04 in 10.0 mi SSW 15.0 mph 25.3 mph N/A   Overcast
6:53 PM 37.9 °F 26.1 °F 25.0 °F 60% 30.04 in 10.0 mi SW 27.6 mph 34.5 mph N/A   Overcast
7:53 PM 37.0 °F 25.4 °F 26.1 °F 65% 30.05 in 10.0 mi SSW 25.3 mph 31.1 mph N/A   Overcast
8:53 PM 37.0 °F 25.6 °F 26.1 °F 65% 30.07 in 10.0 mi SSW 24.2 mph - N/A   Overcast
9:53 PM 37.0 °F 27.0 °F 26.1 °F 65% 30.09 in 10.0 mi SSW 18.4 mph 24.2 mph N/A   Overcast
10:53 PM 37.0 °F 27.4 °F 26.1 °F 65% 30.07 in 10.0 mi SSW 17.3 mph - N/A   Mostly Cloudy
11:53 PM 37.0 °F 26.7 °F 26.1 °F 65% 30.07 in 10.0 mi SSW 19.6 mph - N/A   Clear